Theta_e
336 343 347 345 350 353 353 359 359 354 350 355 349 350 350 351 353 355 356 351 353 349 350 350 352 352 347 347 345 341 338 340
330 338 345 346 350 354 357 360 360 360 352 351 351 349 351 351 352 356 356 349 353 353 345 349 352 347 348 345 341 344 340 339
323 336 345 347 351 354 357 360 361 361 360 354 355 351 351 353 353 356 356 351 356 352 353 346 348 346 345 346 343 346 342 342
322 326 341 344 349 353 357 359 360 361 361 361 358 359 356 353 354 355 358 357 362 355 354 349 349 344 344 345 346 345 343 343
322 328 341 339 345 349 353 359 360 362 364 362 359 356 354 354 354 361 358 362 363 362 354 355 356 357 362 357 354 350 346 344
324 333 340 338 335 343 352 348 358 362 361 358 356 359 357 354 354 355 358 359 360 363 360 354 355 358 355 352 352 350 349 347
326 330 333 333 341 342 344 347 349 360 363 357 355 357 359 358 356 355 356 354 357 358 354 352 358 362 356 354 353 353 350 348
324 326 328 329 337 338 341 344 348 360 355 358 349 353 359 366 356 354 356 352 354 357 354 355 357 355 357 355 353 351 352 349
322 324 326 327 334 342 344 343 354 351 341 337 339 341 344 348 354 359 359 358 356 359 348 345 351 350 354 358 353 349 344 348
320 322 324 328 335 340 345 344 348 346 339 345 339 337 336 343 356 356 358 356 355 358 355 348 353 347 355 349 352 344 348 347
322 324 328 333 337 340 344 348 350 349 349 347 348 348 347 344 349 350 358 358 357 357 355 356 351 322 326 330 339 342 339 342
324 327 330 333 334 335 337 338 341 342 347 349 350 343 347 348 355 354 350 351 351 353 350 352 347 329 333 326 343 346 346 340
322 323 325 327 329 330 331 332 332 333 334 336 339 337 333 337 340 341 344 342 340 337 342 347 351 352 349 347 347 349 347 343
320 322 323 323 325 326 328 328 328 329 329 329 330 328 328 326 328 326 327 328 329 334 333 336 339 341 345 347 348 349 348 347
319 319 319 320 321 322 324 325 325 326 326 327 327 327 328 327 326 323 325 324 324 333 336 334 331 335 334 339 340 345 346 344
317 318 318 318 320 321 322 322 323 324 324 324 325 326 323 323 325 323 322 322 322 331 328 327 327 327 328 333 330 331 338 338
316 317 317 318 319 320 321 320 321 322 322 324 324 324 324 323 324 324 321 324 322 324 323 323 324 324 325 328 324 328 332 334
315 316 316 317 318 319 320 320 320 320 321 321 320 321 322 322 322 321 321 321 321 320 319 319 320 320 321 325 322 325 327 327
314 314 314 315 316 317 318 318 318 318 319 319 319 319 320 320 319 319 319 319 318 317 317 316 316 316 318 320 320 320 319 322
313 313 313 314 314 315 315 317 316 317 317 317 318 318 318 318 317 317 317 316 315 315 314 313 312 311 313 313 313 313 313 314
Wind_Speed
11 15 3 11 13 13 15 14 11 12 10 11 8 8 7 8 11 10 11 9 8 8 7 8 8 11 8 11 11 9 12 10
12 13 17 11 6 13 6 14 10 9 7 8 9 9 9 8 10 11 8 7 7 7 7 10 9 8 10 9 8 9 11 12
12 11 10 7 16 16 9 10 7 7 5 4 5 6 8 8 9 11 9 9 6 7 6 7 7 9 9 8 9 7 10 10
14 13 11 12 8 11 8 7 9 7 7 4 3 3 5 6 7 9 13 9 6 6 6 7 7 8 8 7 8 8 9 10
16 16 16 8 10 12 13 14 13 10 9 9 7 8 7 7 8 9 10 11 9 9 8 7 7 7 7 5 7 7 8 9
12 13 12 15 10 14 13 12 15 14 10 8 7 4 6 8 9 9 10 9 11 8 6 8 8 6 8 8 9 11 11 12
15 17 16 15 13 12 15 9 14 13 10 6 5 5 4 6 7 10 10 10 14 11 11 7 7 5 9 8 8 9 8 10
13 13 14 14 11 4 5 6 7 11 10 9 7 2 1 3 10 9 11 12 10 11 9 9 9 8 9 11 10 7 10 9
13 12 9 11 5 10 8 5 7 6 9 9 6 6 4 5 9 10 14 7 9 12 11 9 8 9 12 12 9 8 5 5
6 7 6 4 6 7 7 5 4 3 4 2 4 5 6 3 6 9 11 11 10 13 16 10 9 8 10 11 9 7 8 7
8 8 7 7 8 5 6 7 7 7 3 3 1 4 5 5 6 8 7 8 12 11 13 11 7 7 2 16 14 19 7 11
10 11 10 10 9 9 8 8 8 9 7 5 4 5 4 3 3 1 7 4 8 7 10 10 6 4 6 14 18 11 9 10
12 12 11 11 9 10 10 11 12 11 11 8 1 5 3 3 3 5 6 6 5 7 9 10 6 10 10 9 10 9 10 7
12 12 11 11 11 10 10 11 11 9 8 8 6 4 4 4 5 6 6 6 7 5 6 7 9 10 10 6 11 12 10 11
13 13 11 9 9 9 9 9 9 7 6 5 5 5 5 5 6 5 7 8 8 8 8 7 8 9 11 11 11 12 11 11
10 9 10 10 9 8 8 7 7 6 6 5 4 5 5 6 6 8 7 9 9 9 10 11 12 13 11 11 11 11 13 12
11 10 7 8 7 7 7 6 6 5 6 5 5 6 7 7 8 8 8 9 9 11 13 13 14 15 14 13 12 13 14 14
9 8 7 6 5 7 6 5 6 6 6 5 6 8 8 8 9 10 11 11 12 13 13 14 14 15 15 14 14 14 15 13
8 7 6 5 5 6 6 6 7 7 7 7 8 8 8 8 9 10 11 12 14 15 16 16 17 17 15 14 14 15 17 17
7 6 5 5 6 6 6 7 7 8 8 8 8 8 9 9 10 12 12 13 13 14 15 15 16 17 14 15 15 15 16 19
Wind_Direction
230 189 206 183 177 169 155 150 181 190 187 155 187 182 193 194 201 189 211 204 198 205 175 186 206 201 220 203 205 222 224 236
206 258 168 157 342 149 163 141 178 209 197 175 186 193 186 198 198 202 213 221 204 202 219 194 194 206 217 234 212 223 218 229
223 213 167 35 173 103 156 136 197 184 259 204 228 213 181 203 191 191 223 220 217 213 228 239 219 212 209 223 240 218 220 240
215 217 142 147 119 113 153 156 168 183 210 232 218 279 266 215 240 196 196 232 233 210 235 216 248 247 243 233 218 238 226 246
210 198 152 122 159 144 158 168 158 192 205 178 205 218 233 246 228 231 211 208 228 218 222 218 252 240 234 262 285 269 262 265
191 190 156 165 167 162 179 180 154 178 176 184 197 211 225 224 211 250 234 238 232 235 237 234 229 260 265 235 220 229 235 232
190 179 177 188 200 198 180 176 162 170 155 167 207 231 214 283 279 215 206 227 228 232 228 235 216 266 274 254 246 251 253 251
201 208 218 203 193 189 190 167 187 173 158 154 166 103 200 270 287 288 220 184 225 225 236 227 200 203 237 247 262 270 270 258
182 188 237 231 90 167 170 168 140 211 230 222 197 195 162 220 258 262 293 319 239 227 237 238 238 239 225 237 244 234 261 287
121 163 227 220 121 127 120 134 139 207 195 276 305 286 244 237 243 237 258 251 234 235 242 240 248 264 267 263 247 255 253 250
147 148 144 126 112 121 97 76 80 41 340 171 102 304 289 277 271 271 252 239 243 236 247 243 243 109 143 324 255 236 214 231
124 120 115 105 101 92 84 78 89 73 46 37 343 245 262 343 277 151 307 282 291 265 233 250 211 195 233 208 246 233 227 235
124 111 110 109 111 103 95 84 77 77 70 52 110 14 57 301 331 14 303 269 271 305 324 322 238 208 225 250 243 235 245 238
115 114 120 124 126 112 104 91 79 70 70 82 79 71 351 341 353 316 293 318 310 291 298 317 320 317 303 258 244 248 241 239
140 142 125 115 105 100 105 90 89 80 67 46 37 8 325 295 323 314 336 302 314 327 348 317 302 308 299 302 299 293 267 249
122 120 130 116 101 85 82 80 73 58 43 10 7 335 322 311 345 333 306 307 304 313 312 304 297 294 291 289 279 276 275 272
138 134 112 93 93 76 60 44 44 37 19 351 339 338 336 328 318 309 297 312 313 314 315 302 297 293 287 286 276 273 272 268
142 131 116 103 83 90 57 32 17 2 357 347 349 328 327 326 320 316 313 310 308 307 299 297 297 293 291 285 279 273 268 264
153 136 119 102 72 51 39 9 357 350 347 343 333 326 323 320 316 316 314 312 307 305 305 306 300 294 290 290 292 291 283 285
146 134 110 57 36 15 12 1 338 341 335 331 322 318 320 318 315 313 311 307 304 301 303 302 301 302 304 305 304 295 296 293